Location: Katzenstein
(51.7484°N, 10.2155°E)
Time: 17:55:21
(UTC+00:00)

Cosmos 1633 Rocket - Pass Details

Date: 17 February 2020
Orbit: 608 x 622 km, 82.5° (Epoch: 31 March)

Event Time Altitude Azimuth Distance (km) Brightness Sun altitude
Rises 05:42:18 0° 347° (NNW) 2,889 6.3 -8.1°
Reaches altitude 10° 05:44:32 10° 345° (NNW) 1,981 5.4 -7.8°
Maximum altitude 05:48:53 67° 263° (W) 669 3.0 -7.1°
Drops below altitude 10° 05:53:13 10° 181° (S) 1,973 5.8 -6.5°
Sets 05:55:27 0° 179° (S) 2,875 6.7 -6.1°
